owner,sensor,date,latitude,longitude,vertical_datum,sea_water_practical_salinity,qcFlag 
SCCF RECON,ioos:station:SCCF:51:1,2008-09-01T00:00:00Z,26.5545,-82.1715,2.108,21.21,1111122 
SCCF RECON,ioos:station:SCCF:51:1,2008-09-01T01:00:00Z,26.5545,-82.1715,2.051,23.09,1111122 
SCCF RECON,ioos:station:SCCF:51:1,2008-09-01T02:00:00Z,26.5545,-82.1715,2.075,22.15,1111122 
SCCF RECON,ioos:station:SCCF:51:1,2008-09-01T03:00:00Z,26.5545,-82.1715,2.146,20.84,1111122 
SCCF RECON,ioos:station:SCCF:51:1,2008-09-01T04:00:00Z,26.5545,-82.1715,2.243,25.02,1111122 
SCCF RECON,ioos:station:SCCF:51:1,2008-09-01T05:00:00Z,26.5545,-82.1715,2.305,30.24,1111122 
SCCF RECON,ioos:station:SCCF:51:1,2008-09-01T06:00:00Z,26.5545,-82.1715,2.257,30.48,1111122 
SCCF RECON,ioos:station:SCCF:51:1,2008-09-01T07:00:00Z,26.5545,-82.1715,2.172,31.27,1111122 
SCCF RECON,ioos:station:SCCF:51:1,2008-09-01T08:00:00Z,26.5545,-82.1715,2.076,29.88,1111122 
SCCF RECON,ioos:station:SCCF:51:1,2008-09-01T09:00:00Z,26.5545,-82.1715,1.977,30.45,1111122 
SCCF RECON,ioos:station:SCCF:51:1,2008-09-01T10:00:00Z,26.5545,-82.1715,1.871,28.38,1111122 
SCCF RECON,ioos:station:SCCF:51:1,2008-09-01T11:00:00Z,26.5545,-82.1715,1.771,26.5,1111122 
SCCF RECON,ioos:station:SCCF:51:1,2008-09-01T12:00:00Z,26.5545,-82.1715,1.688,24.99,1111122 
SCCF RECON,ioos:station:SCCF:51:1,2008-09-01T13:00:00Z,26.5545,-82.1715,1.633,24.49,1111122 
SCCF RECON,ioos:station:SCCF:51:1,2008-09-01T14:00:00Z,26.5545,-82.1715,1.661,24.6,1111122 
SCCF RECON,ioos:station:SCCF:51:1,2008-09-01T15:00:00Z,26.5545,-82.1715,1.767,22.58,1111122 
SCCF RECON,ioos:station:SCCF:51:1,2008-09-01T16:00:00Z,26.5545,-82.1715,1.923,23.82,1111122 
SCCF RECON,ioos:station:SCCF:51:1,2008-09-01T17:00:00Z,26.5545,-82.1715,2.083,31.87,1111122 
SCCF RECON,ioos:station:SCCF:51:1,2008-09-01T18:00:00Z,26.5545,-82.1715,2.171,33.1,1111122 
SCCF RECON,ioos:station:SCCF:51:1,2008-09-01T19:00:00Z,26.5545,-82.1715,2.203,32.08,1111122 
SCCF RECON,ioos:station:SCCF:51:1,2008-09-01T20:00:00Z,26.5545,-82.1715,2.185,31.07,1111122 
SCCF RECON,ioos:station:SCCF:51:1,2008-09-01T21:00:00Z,26.5545,-82.1715,2.121,26.61,1111122 
SCCF RECON,ioos:station:SCCF:51:1,2008-09-01T22:00:00Z,26.5545,-82.1715,2.031,27.1,1111122 
SCCF RECON,ioos:station:SCCF:51:1,2008-09-01T23:00:00Z,26.5545,-82.1715,1.942,32.31,1111122 
SCCF RECON,ioos:station:SCCF:51:1,2008-09-02T00:00:00Z,26.5545,-82.1715,1.869,31.43,1111122 
SCCF RECON,ioos:station:SCCF:51:1,2008-09-02T01:00:00Z,26.5545,-82.1715,1.835,29.17,1111122 
SCCF RECON,ioos:station:SCCF:51:1,2008-09-02T02:00:00Z,26.5545,-82.1715,1.839,24.82,1111122 
SCCF RECON,ioos:station:SCCF:51:1,2008-09-02T03:00:00Z,26.5545,-82.1715,1.899,24.42,1111122 
SCCF RECON,ioos:station:SCCF:51:1,2008-09-02T04:00:00Z,26.5545,-82.1715,1.988,25.49,1111122 
SCCF RECON,ioos:station:SCCF:51:1,2008-09-02T05:00:00Z,26.5545,-82.1715,2.096,31.85,1111122 
SCCF RECON,ioos:station:SCCF:51:1,2008-09-02T06:00:00Z,26.5545,-82.1715,2.173,33.9,1111122 
SCCF RECON,ioos:station:SCCF:51:1,2008-09-02T07:00:00Z,26.5545,-82.1715,2.164,32.1,1111122 
SCCF RECON,ioos:station:SCCF:51:1,2008-09-02T08:00:00Z,26.5545,-82.1715,2.094,28.75,1111122 
SCCF RECON,ioos:station:SCCF:51:1,2008-09-02T09:00:00Z,26.5545,-82.1715,1.999,27.05,1111122 
SCCF RECON,ioos:station:SCCF:51:1,2008-09-02T10:00:00Z,26.5545,-82.1715,1.883,26.14,1111122 
SCCF RECON,ioos:station:SCCF:51:1,2008-09-02T11:00:00Z,26.5545,-82.1715,1.775,26.85,1111122 
SCCF RECON,ioos:station:SCCF:51:1,2008-09-02T12:00:00Z,26.5545,-82.1715,1.674,27.55,1111122 
SCCF RECON,ioos:station:SCCF:51:1,2008-09-02T13:00:00Z,26.5545,-82.1715,1.588,27.91,1111122 
SCCF RECON,ioos:station:SCCF:51:1,2008-09-02T14:00:00Z,26.5545,-82.1715,1.538,27.99,1111122 
SCCF RECON,ioos:station:SCCF:51:1,2008-09-02T15:00:00Z,26.5545,-82.1715,1.575,28.26,1111122 
SCCF RECON,ioos:station:SCCF:51:1,2008-09-02T16:00:00Z,26.5545,-82.1715,1.67,27.01,1111122 
SCCF RECON,ioos:station:SCCF:51:1,2008-09-02T17:00:00Z,26.5545,-82.1715,1.798,29.01,1111122 
SCCF RECON,ioos:station:SCCF:51:1,2008-09-02T18:00:00Z,26.5545,-82.1715,1.92,31.39,1111122 
SCCF RECON,ioos:station:SCCF:51:1,2008-09-02T19:00:00Z,26.5545,-82.1715,1.975,33.02,1111122 
SCCF RECON,ioos:station:SCCF:51:1,2008-09-02T20:00:00Z,26.5545,-82.1715,1.984,30.98,1111122 
SCCF RECON,ioos:station:SCCF:51:1,2008-09-02T21:00:00Z,26.5545,-82.1715,1.949,29.99,1111122 
SCCF RECON,ioos:station:SCCF:51:1,2008-09-02T22:00:00Z,26.5545,-82.1715,1.906,28.92,1111122 
SCCF RECON,ioos:station:SCCF:51:1,2008-09-02T23:00:00Z,26.5545,-82.1715,1.859,28.24,1111122 
SCCF RECON,ioos:station:SCCF:51:1,2008-09-03T00:00:00Z,26.5545,-82.1715,1.81,26.8,1111122 
SCCF RECON,ioos:station:SCCF:51:1,2008-09-03T01:00:00Z,26.5545,-82.1715,1.772,26.47,1111122 
SCCF RECON,ioos:station:SCCF:51:1,2008-09-03T02:00:00Z,26.5545,-82.1715,1.74,27.72,1111122 
SCCF RECON,ioos:station:SCCF:51:1,2008-09-03T03:00:00Z,26.5545,-82.1715,1.799,26.42,1111122 
SCCF RECON,ioos:station:SCCF:51:1,2008-09-03T04:00:00Z,26.5545,-82.1715,1.889,26.39,1111122 
SCCF RECON,ioos:station:SCCF:51:1,2008-09-03T05:00:00Z,26.5545,-82.1715,2.009,33.13,1111122 
SCCF RECON,ioos:station:SCCF:51:1,2008-09-03T06:00:00Z,26.5545,-82.1715,2.121,34.14,1111122 
SCCF RECON,ioos:station:SCCF:51:1,2008-09-03T07:00:00Z,26.5545,-82.1715,2.16,34.65,1111122 
SCCF RECON,ioos:station:SCCF:51:1,2008-09-03T08:00:00Z,26.5545,-82.1715,2.145,33.58,1111122 
SCCF RECON,ioos:station:SCCF:51:1,2008-09-03T09:00:00Z,26.5545,-82.1715,2.094,32.09,1111122 
SCCF RECON,ioos:station:SCCF:51:1,2008-09-03T10:00:00Z,26.5545,-82.1715,2.013,28.13,1111122 
SCCF RECON,ioos:station:SCCF:51:1,2008-09-03T11:00:00Z,26.5545,-82.1715,1.913,27.49,1111122 
SCCF RECON,ioos:station:SCCF:51:1,2008-09-03T12:00:00Z,26.5545,-82.1715,1.808,26.93,1111122 
SCCF RECON,ioos:station:SCCF:51:1,2008-09-03T13:00:00Z,26.5545,-82.1715,1.704,26.76,1111122 
SCCF RECON,ioos:station:SCCF:51:1,2008-09-03T14:00:00Z,26.5545,-82.1715,1.635,27.19,1111122 
SCCF RECON,ioos:station:SCCF:51:1,2008-09-03T15:00:00Z,26.5545,-82.1715,1.627,27.17,1111122 
SCCF RECON,ioos:station:SCCF:51:1,2008-09-03T16:00:00Z,26.5545,-82.1715,1.684,27.74,1111122 
SCCF RECON,ioos:station:SCCF:51:1,2008-09-03T17:00:00Z,26.5545,-82.1715,1.78,28.16,1111122 
SCCF RECON,ioos:station:SCCF:51:1,2008-09-03T18:00:00Z,26.5545,-82.1715,1.906,32.82,1111122 
SCCF RECON,ioos:station:SCCF:51:1,2008-09-03T19:00:00Z,26.5545,-82.1715,1.997,33.49,1111122 
SCCF RECON,ioos:station:SCCF:51:1,2008-09-03T20:00:00Z,26.5545,-82.1715,2.02,34.03,1111122 
SCCF RECON,ioos:station:SCCF:51:1,2008-09-03T21:00:00Z,26.5545,-82.1715,2.004,33.99,1111122 
SCCF RECON,ioos:station:SCCF:51:1,2008-09-03T22:00:00Z,26.5545,-82.1715,1.98,32.24,1111122 
SCCF RECON,ioos:station:SCCF:51:1,2008-09-03T23:00:00Z,26.5545,-82.1715,1.95,30.42,1111122 
SCCF RECON,ioos:station:SCCF:51:1,2008-09-04T00:00:00Z,26.5545,-82.1715,1.925,30.58,1111122 
SCCF RECON,ioos:station:SCCF:51:1,2008-09-04T01:00:00Z,26.5545,-82.1715,1.85,32.65,1111122 
SCCF RECON,ioos:station:SCCF:51:1,2008-09-04T02:00:00Z,26.5545,-82.1715,1.84,32.47,1111122 
SCCF RECON,ioos:station:SCCF:51:1,2008-09-04T03:00:00Z,26.5545,-82.1715,1.879,31.6,1111122 
SCCF RECON,ioos:station:SCCF:51:1,2008-09-04T04:00:00Z,26.5545,-82.1715,1.958,31.24,1111122 
SCCF RECON,ioos:station:SCCF:51:1,2008-09-04T05:00:00Z,26.5545,-82.1715,2.058,32.03,1111122 
SCCF RECON,ioos:station:SCCF:51:1,2008-09-04T06:00:00Z,26.5545,-82.1715,2.16,34.12,1111122 
SCCF RECON,ioos:station:SCCF:51:1,2008-09-04T07:00:00Z,26.5545,-82.1715,2.21,34.46,1111122 
SCCF RECON,ioos:station:SCCF:51:1,2008-09-04T08:00:00Z,26.5545,-82.1715,2.19,34.64,1111122 
SCCF RECON,ioos:station:SCCF:51:1,2008-09-04T09:00:00Z,26.5545,-82.1715,2.147,34.42,1111122 
SCCF RECON,ioos:station:SCCF:51:1,2008-09-04T10:00:00Z,26.5545,-82.1715,2.087,31.38,1111122 
SCCF RECON,ioos:station:SCCF:51:1,2008-09-04T11:00:00Z,26.5545,-82.1715,2.011,27.69,1111122 
SCCF RECON,ioos:station:SCCF:51:1,2008-09-04T12:00:00Z,26.5545,-82.1715,1.92,27.38,1111122 
SCCF RECON,ioos:station:SCCF:51:1,2008-09-04T13:00:00Z,26.5545,-82.1715,1.811,29.82,1111122 
SCCF RECON,ioos:station:SCCF:51:1,2008-09-04T14:00:00Z,26.5545,-82.1715,1.73,30.02,1111122 
SCCF RECON,ioos:station:SCCF:51:1,2008-09-04T15:00:00Z,26.5545,-82.1715,1.679,29.21,1111122 
SCCF RECON,ioos:station:SCCF:51:1,2008-09-04T16:00:00Z,26.5545,-82.1715,1.684,28.6,1111122 
SCCF RECON,ioos:station:SCCF:51:1,2008-09-04T17:00:00Z,26.5545,-82.1715,1.748,27.94,1111122 
SCCF RECON,ioos:station:SCCF:51:1,2008-09-04T18:00:00Z,26.5545,-82.1715,1.829,31.0,1111122 
SCCF RECON,ioos:station:SCCF:51:1,2008-09-04T19:00:00Z,26.5545,-82.1715,1.916,32.74,1111122 
SCCF RECON,ioos:station:SCCF:51:1,2008-09-04T20:00:00Z,26.5545,-82.1715,1.966,34.28,1111122 
SCCF RECON,ioos:station:SCCF:51:1,2008-09-04T21:00:00Z,26.5545,-82.1715,1.969,34.35,1111122 
SCCF RECON,ioos:station:SCCF:51:1,2008-09-04T22:00:00Z,26.5545,-82.1715,1.949,31.39,1111122 
SCCF RECON,ioos:station:SCCF:51:1,2008-09-04T23:00:00Z,26.5545,-82.1715,1.92,29.6,1111122 
SCCF RECON,ioos:station:SCCF:51:1,2008-09-05T00:00:00Z,26.5545,-82.1715,1.883,29.32,1111122 
SCCF RECON,ioos:station:SCCF:51:1,2008-09-05T01:00:00Z,26.5545,-82.1715,1.848,29.04,1111122 
SCCF RECON,ioos:station:SCCF:51:1,2008-09-05T02:00:00Z,26.5545,-82.1715,1.822,29.18,1111122 
SCCF RECON,ioos:station:SCCF:51:1,2008-09-05T03:00:00Z,26.5545,-82.1715,1.82,29.36,1111122 
SCCF RECON,ioos:station:SCCF:51:1,2008-09-05T04:00:00Z,26.5545,-82.1715,1.857,29.32,1111122 
SCCF RECON,ioos:station:SCCF:51:1,2008-09-05T05:00:00Z,26.5545,-82.1715,1.912,30.04,1111122 
SCCF RECON,ioos:station:SCCF:51:1,2008-09-05T06:00:00Z,26.5545,-82.1715,1.989,32.26,1111122 
SCCF RECON,ioos:station:SCCF:51:1,2008-09-05T07:00:00Z,26.5545,-82.1715,2.076,35.34,1111122 
SCCF RECON,ioos:station:SCCF:51:1,2008-09-05T08:00:00Z,26.5545,-82.1715,2.14,35.33,1111122 
SCCF RECON,ioos:station:SCCF:51:1,2008-09-05T09:00:00Z,26.5545,-82.1715,2.156,35.48,1111122 
SCCF RECON,ioos:station:SCCF:51:1,2008-09-05T10:00:00Z,26.5545,-82.1715,2.119,32.81,1111122 
SCCF RECON,ioos:station:SCCF:51:1,2008-09-05T11:00:00Z,26.5545,-82.1715,2.055,32.4,1111122 
SCCF RECON,ioos:station:SCCF:51:1,2008-09-05T12:00:00Z,26.5545,-82.1715,1.975,31.89,1111122 
SCCF RECON,ioos:station:SCCF:51:1,2008-09-05T13:00:00Z,26.5545,-82.1715,1.891,31.46,1111122 
SCCF RECON,ioos:station:SCCF:51:1,2008-09-05T14:00:00Z,26.5545,-82.1715,1.814,31.91,1111122 
SCCF RECON,ioos:station:SCCF:51:1,2008-09-05T15:00:00Z,26.5545,-82.1715,1.781,32.12,1111122 
SCCF RECON,ioos:station:SCCF:51:1,2008-09-05T16:00:00Z,26.5545,-82.1715,1.755,32.34,1111122 
SCCF RECON,ioos:station:SCCF:51:1,2008-09-05T17:00:00Z,26.5545,-82.1715,1.789,33.28,1111122 
SCCF RECON,ioos:station:SCCF:51:1,2008-09-05T18:00:00Z,26.5545,-82.1715,1.833,33.22,1111122 
SCCF RECON,ioos:station:SCCF:51:1,2008-09-05T19:00:00Z,26.5545,-82.1715,1.893,33.86,1111122 
SCCF RECON,ioos:station:SCCF:51:1,2008-09-05T20:00:00Z,26.5545,-82.1715,1.952,34.05,1111122 
SCCF RECON,ioos:station:SCCF:51:1,2008-09-05T21:00:00Z,26.5545,-82.1715,1.988,34.2,1111122 
SCCF RECON,ioos:station:SCCF:51:1,2008-09-05T22:00:00Z,26.5545,-82.1715,2.009,35.01,1111122 
SCCF RECON,ioos:station:SCCF:51:1,2008-09-05T23:00:00Z,26.5545,-82.1715,2.002,34.51,1111122 
SCCF RECON,ioos:station:SCCF:51:1,2008-09-06T00:00:00Z,26.5545,-82.1715,1.977,34.43,1111122 
SCCF RECON,ioos:station:SCCF:51:1,2008-09-06T01:00:00Z,26.5545,-82.1715,1.942,34.19,1111122 
SCCF RECON,ioos:station:SCCF:51:1,2008-09-06T02:00:00Z,26.5545,-82.1715,1.957,34.13,1111122 
SCCF RECON,ioos:station:SCCF:51:1,2008-09-06T03:00:00Z,26.5545,-82.1715,1.999,33.9,1111122 
SCCF RECON,ioos:station:SCCF:51:1,2008-09-06T04:00:00Z,26.5545,-82.1715,2.041,33.46,1111122 
SCCF RECON,ioos:station:SCCF:51:1,2008-09-06T05:00:00Z,26.5545,-82.1715,2.087,33.48,1111122 
SCCF RECON,ioos:station:SCCF:51:1,2008-09-06T06:00:00Z,26.5545,-82.1715,2.13,33.37,1111122 
SCCF RECON,ioos:station:SCCF:51:1,2008-09-06T07:00:00Z,26.5545,-82.1715,2.173,34.14,1111122 
SCCF RECON,ioos:station:SCCF:51:1,2008-09-06T08:00:00Z,26.5545,-82.1715,2.215,34.59,1111122 
SCCF RECON,ioos:station:SCCF:51:1,2008-09-06T09:00:00Z,26.5545,-82.1715,2.23,34.42,1111122 
SCCF RECON,ioos:station:SCCF:51:1,2008-09-06T10:00:00Z,26.5545,-82.1715,2.21,34.42,1111122 
SCCF RECON,ioos:station:SCCF:51:1,2008-09-06T11:00:00Z,26.5545,-82.1715,2.157,34.24,1111122 
SCCF RECON,ioos:station:SCCF:51:1,2008-09-06T12:00:00Z,26.5545,-82.1715,2.089,33.41,1111122 
SCCF RECON,ioos:station:SCCF:51:1,2008-09-06T13:00:00Z,26.5545,-82.1715,2.01,32.94,1111122 
SCCF RECON,ioos:station:SCCF:51:1,2008-09-06T14:00:00Z,26.5545,-82.1715,1.929,32.89,1111122 
SCCF RECON,ioos:station:SCCF:51:1,2008-09-06T15:00:00Z,26.5545,-82.1715,1.84,33.05,1111122 
SCCF RECON,ioos:station:SCCF:51:1,2008-09-06T16:00:00Z,26.5545,-82.1715,1.763,33.05,1111122 
SCCF RECON,ioos:station:SCCF:51:1,2008-09-06T17:00:00Z,26.5545,-82.1715,1.721,33.13,1111122 
SCCF RECON,ioos:station:SCCF:51:1,2008-09-06T18:00:00Z,26.5545,-82.1715,1.744,33.51,1111122 
SCCF RECON,ioos:station:SCCF:51:1,2008-09-06T19:00:00Z,26.5545,-82.1715,1.804,33.03,1111122 
SCCF RECON,ioos:station:SCCF:51:1,2008-09-06T20:00:00Z,26.5545,-82.1715,1.872,33.04,1111122 
SCCF RECON,ioos:station:SCCF:51:1,2008-09-06T21:00:00Z,26.5545,-82.1715,1.919,34.0,1111122 
SCCF RECON,ioos:station:SCCF:51:1,2008-09-06T22:00:00Z,26.5545,-82.1715,1.968,34.42,1111122 
SCCF RECON,ioos:station:SCCF:51:1,2008-09-06T23:00:00Z,26.5545,-82.1715,2.0,34.04,1111122 
SCCF RECON,ioos:station:SCCF:51:1,2008-09-07T00:00:00Z,26.5545,-82.1715,2.02,33.95,1111122 
SCCF RECON,ioos:station:SCCF:51:1,2008-09-07T01:00:00Z,26.5545,-82.1715,2.032,34.03,1111122 
SCCF RECON,ioos:station:SCCF:51:1,2008-09-07T02:00:00Z,26.5545,-82.1715,2.03,33.64,1111122 
SCCF RECON,ioos:station:SCCF:51:1,2008-09-07T03:00:00Z,26.5545,-82.1715,2.02,33.49,1111122 
SCCF RECON,ioos:station:SCCF:51:1,2008-09-07T04:00:00Z,26.5545,-82.1715,2.023,33.55,1111122 
SCCF RECON,ioos:station:SCCF:51:1,2008-09-07T05:00:00Z,26.5545,-82.1715,2.07,33.2,1111122 
SCCF RECON,ioos:station:SCCF:51:1,2008-09-07T06:00:00Z,26.5545,-82.1715,2.11,32.66,1111122 
SCCF RECON,ioos:station:SCCF:51:1,2008-09-07T07:00:00Z,26.5545,-82.1715,2.14,32.41,1111122 
SCCF RECON,ioos:station:SCCF:51:1,2008-09-07T08:00:00Z,26.5545,-82.1715,2.175,33.04,1111122 
SCCF RECON,ioos:station:SCCF:51:1,2008-09-07T09:00:00Z,26.5545,-82.1715,2.19,34.17,1111122 
SCCF RECON,ioos:station:SCCF:51:1,2008-09-07T10:00:00Z,26.5545,-82.1715,2.171,34.34,1111122 
SCCF RECON,ioos:station:SCCF:51:1,2008-09-07T11:00:00Z,26.5545,-82.1715,2.132,33.62,1111122 
SCCF RECON,ioos:station:SCCF:51:1,2008-09-07T12:00:00Z,26.5545,-82.1715,2.067,32.61,1111122 
SCCF RECON,ioos:station:SCCF:51:1,2008-09-07T13:00:00Z,26.5545,-82.1715,1.996,32.78,1111122 
SCCF RECON,ioos:station:SCCF:51:1,2008-09-07T14:00:00Z,26.5545,-82.1715,1.915,33.27,1111122 
SCCF RECON,ioos:station:SCCF:51:1,2008-09-07T15:00:00Z,26.5545,-82.1715,1.829,32.9,1111122 
SCCF RECON,ioos:station:SCCF:51:1,2008-09-07T16:00:00Z,26.5545,-82.1715,1.747,32.5,1111122 
SCCF RECON,ioos:station:SCCF:51:1,2008-09-07T17:00:00Z,26.5545,-82.1715,1.673,32.5,1111122 
SCCF RECON,ioos:station:SCCF:51:1,2008-09-07T18:00:00Z,26.5545,-82.1715,1.631,32.68,1111122 
SCCF RECON,ioos:station:SCCF:51:1,2008-09-07T19:00:00Z,26.5545,-82.1715,1.634,32.91,1111122 
SCCF RECON,ioos:station:SCCF:51:1,2008-09-07T20:00:00Z,26.5545,-82.1715,1.679,32.59,1111122 
SCCF RECON,ioos:station:SCCF:51:1,2008-09-07T21:00:00Z,26.5545,-82.1715,1.75,32.88,1111122 
SCCF RECON,ioos:station:SCCF:51:1,2008-09-07T22:00:00Z,26.5545,-82.1715,1.824,33.21,1111122 
SCCF RECON,ioos:station:SCCF:51:1,2008-09-07T23:00:00Z,26.5545,-82.1715,1.88,33.4,1111122 
SCCF RECON,ioos:station:SCCF:51:1,2008-09-08T00:00:00Z,26.5545,-82.1715,1.935,33.66,1111122 
SCCF RECON,ioos:station:SCCF:51:1,2008-09-08T01:00:00Z,26.5545,-82.1715,1.982,33.72,1111122 
SCCF RECON,ioos:station:SCCF:51:1,2008-09-08T02:00:00Z,26.5545,-82.1715,2.011,34.03,1111122 
SCCF RECON,ioos:station:SCCF:51:1,2008-09-08T03:00:00Z,26.5545,-82.1715,2.01,33.59,1111122 
SCCF RECON,ioos:station:SCCF:51:1,2008-09-08T04:00:00Z,26.5545,-82.1715,2.0,33.32,1111122 
SCCF RECON,ioos:station:SCCF:51:1,2008-09-08T05:00:00Z,26.5545,-82.1715,2.007,33.23,1111122 
SCCF RECON,ioos:station:SCCF:51:1,2008-09-08T06:00:00Z,26.5545,-82.1715,2.003,32.91,1111122 
SCCF RECON,ioos:station:SCCF:51:1,2008-09-08T07:00:00Z,26.5545,-82.1715,1.998,32.85,1111122 
SCCF RECON,ioos:station:SCCF:51:1,2008-09-08T08:00:00Z,26.5545,-82.1715,2.01,32.8,1111122 
SCCF RECON,ioos:station:SCCF:51:1,2008-09-08T09:00:00Z,26.5545,-82.1715,2.058,32.77,1111122 
SCCF RECON,ioos:station:SCCF:51:1,2008-09-08T10:00:00Z,26.5545,-82.1715,2.097,33.56,1111122 
SCCF RECON,ioos:station:SCCF:51:1,2008-09-08T11:00:00Z,26.5545,-82.1715,2.104,33.33,1111122 
SCCF RECON,ioos:station:SCCF:51:1,2008-09-08T12:00:00Z,26.5545,-82.1715,2.08,32.95,1111122 
SCCF RECON,ioos:station:SCCF:51:1,2008-09-08T13:00:00Z,26.5545,-82.1715,2.037,32.89,1111122 
SCCF RECON,ioos:station:SCCF:51:1,2008-09-08T14:00:00Z,26.5545,-82.1715,1.981,32.69,1111122 
SCCF RECON,ioos:station:SCCF:51:1,2008-09-08T15:00:00Z,26.5545,-82.1715,1.921,32.7,1111122 
SCCF RECON,ioos:station:SCCF:51:1,2008-09-08T16:00:00Z,26.5545,-82.1715,1.829,32.95,1111122 
SCCF RECON,ioos:station:SCCF:51:1,2008-09-08T17:00:00Z,26.5545,-82.1715,1.734,33.06,1111122 
SCCF RECON,ioos:station:SCCF:51:1,2008-09-08T18:00:00Z,26.5545,-82.1715,1.661,32.87,1111122 
SCCF RECON,ioos:station:SCCF:51:1,2008-09-08T19:00:00Z,26.5545,-82.1715,1.617,32.76,1111122 
SCCF RECON,ioos:station:SCCF:51:1,2008-09-08T20:00:00Z,26.5545,-82.1715,1.625,32.65,1111122 
SCCF RECON,ioos:station:SCCF:51:1,2008-09-08T21:00:00Z,26.5545,-82.1715,1.653,31.72,1111122 
SCCF RECON,ioos:station:SCCF:51:1,2008-09-08T22:00:00Z,26.5545,-82.1715,1.701,30.9,1111122 
SCCF RECON,ioos:station:SCCF:51:1,2008-09-08T23:00:00Z,26.5545,-82.1715,1.769,29.59,1111122 
SCCF RECON,ioos:station:SCCF:51:1,2008-09-09T00:00:00Z,26.5545,-82.1715,1.861,28.58,1111122 
SCCF RECON,ioos:station:SCCF:51:1,2008-09-09T01:00:00Z,26.5545,-82.1715,1.912,32.33,1111122 
SCCF RECON,ioos:station:SCCF:51:1,2008-09-09T02:00:00Z,26.5545,-82.1715,1.875,34.99,1111122 
SCCF RECON,ioos:station:SCCF:51:1,2008-09-09T03:00:00Z,26.5545,-82.1715,1.855,29.88,1111122 
SCCF RECON,ioos:station:SCCF:51:1,2008-09-09T04:00:00Z,26.5545,-82.1715,1.883,29.24,1111122 
SCCF RECON,ioos:station:SCCF:51:1,2008-09-09T05:00:00Z,26.5545,-82.1715,1.935,28.95,1111122 
SCCF RECON,ioos:station:SCCF:51:1,2008-09-09T06:00:00Z,26.5545,-82.1715,1.953,29.09,1111122 
SCCF RECON,ioos:station:SCCF:51:1,2008-09-09T07:00:00Z,26.5545,-82.1715,1.906,29.04,1111122 
SCCF RECON,ioos:station:SCCF:51:1,2008-09-09T08:00:00Z,26.5545,-82.1715,1.917,29.18,1111122 
SCCF RECON,ioos:station:SCCF:51:1,2008-09-09T09:00:00Z,26.5545,-82.1715,1.942,29.88,1111122 
SCCF RECON,ioos:station:SCCF:51:1,2008-09-09T10:00:00Z,26.5545,-82.1715,2.016,30.62,1111122 
SCCF RECON,ioos:station:SCCF:51:1,2008-09-09T11:00:00Z,26.5545,-82.1715,1.98,30.9,1111122 
SCCF RECON,ioos:station:SCCF:51:1,2008-09-09T12:00:00Z,26.5545,-82.1715,1.946,31.25,1111122 
SCCF RECON,ioos:station:SCCF:51:1,2008-09-09T13:00:00Z,26.5545,-82.1715,1.962,31.23,1111122 
SCCF RECON,ioos:station:SCCF:51:1,2008-09-09T14:00:00Z,26.5545,-82.1715,1.988,31.12,1111122 
SCCF RECON,ioos:station:SCCF:51:1,2008-09-09T15:00:00Z,26.5545,-82.1715,1.948,30.28,1111122 
SCCF RECON,ioos:station:SCCF:51:1,2008-09-09T16:00:00Z,26.5545,-82.1715,1.872,30.1,1111122 
SCCF RECON,ioos:station:SCCF:51:1,2008-09-09T17:00:00Z,26.5545,-82.1715,1.781,31.09,1111122 
SCCF RECON,ioos:station:SCCF:51:1,2008-09-09T18:00:00Z,26.5545,-82.1715,1.685,30.27,1111122 
SCCF RECON,ioos:station:SCCF:51:1,2008-09-09T19:00:00Z,26.5545,-82.1715,1.619,29.21,1111122 
SCCF RECON,ioos:station:SCCF:51:1,2008-09-09T20:00:00Z,26.5545,-82.1715,1.539,28.67,1111122 
SCCF RECON,ioos:station:SCCF:51:1,2008-09-09T21:00:00Z,26.5545,-82.1715,1.601,27.96,1111122 
SCCF RECON,ioos:station:SCCF:51:1,2008-09-09T22:00:00Z,26.5545,-82.1715,1.671,27.25,1111122 
SCCF RECON,ioos:station:SCCF:51:1,2008-09-09T23:00:00Z,26.5545,-82.1715,1.676,26.93,1111122 
SCCF RECON,ioos:station:SCCF:51:1,2008-09-10T00:00:00Z,26.5545,-82.1715,1.749,26.78,1111122 
SCCF RECON,ioos:station:SCCF:51:1,2008-09-10T01:00:00Z,26.5545,-82.1715,1.827,27.02,1111122 
SCCF RECON,ioos:station:SCCF:51:1,2008-09-10T02:00:00Z,26.5545,-82.1715,1.933,31.51,1111122 
SCCF RECON,ioos:station:SCCF:51:1,2008-09-10T03:00:00Z,26.5545,-82.1715,2.041,33.49,1111122 
SCCF RECON,ioos:station:SCCF:51:1,2008-09-10T04:00:00Z,26.5545,-82.1715,2.122,31.65,1111122 
SCCF RECON,ioos:station:SCCF:51:1,2008-09-10T05:00:00Z,26.5545,-82.1715,2.132,30.67,1111122 
SCCF RECON,ioos:station:SCCF:51:1,2008-09-10T06:00:00Z,26.5545,-82.1715,2.13,29.64,1111122 
SCCF RECON,ioos:station:SCCF:51:1,2008-09-10T07:00:00Z,26.5545,-82.1715,2.1,28.75,1111122 
SCCF RECON,ioos:station:SCCF:51:1,2008-09-10T08:00:00Z,26.5545,-82.1715,2.142,28.51,1111122 
SCCF RECON,ioos:station:SCCF:51:1,2008-09-10T09:00:00Z,26.5545,-82.1715,2.226,27.73,1111122 
SCCF RECON,ioos:station:SCCF:51:1,2008-09-10T10:00:00Z,26.5545,-82.1715,2.301,27.53,1111122 
SCCF RECON,ioos:station:SCCF:51:1,2008-09-10T11:00:00Z,26.5545,-82.1715,2.396,30.35,1111122 
SCCF RECON,ioos:station:SCCF:51:1,2008-09-10T12:00:00Z,26.5545,-82.1715,2.457,30.64,1111122 
SCCF RECON,ioos:station:SCCF:51:1,2008-09-10T13:00:00Z,26.5545,-82.1715,2.508,27.36,1111122 
SCCF RECON,ioos:station:SCCF:51:1,2008-09-10T14:00:00Z,26.5545,-82.1715,2.572,29.34,1111122 
SCCF RECON,ioos:station:SCCF:51:1,2008-09-10T15:00:00Z,26.5545,-82.1715,2.582,28.21,1111122 
SCCF RECON,ioos:station:SCCF:51:1,2008-09-10T16:00:00Z,26.5545,-82.1715,2.514,30.07,1111122 
SCCF RECON,ioos:station:SCCF:51:1,2008-09-10T17:00:00Z,26.5545,-82.1715,2.407,30.17,1111122 
SCCF RECON,ioos:station:SCCF:51:1,2008-09-10T18:00:00Z,26.5545,-82.1715,2.304,27.58,1111122 
SCCF RECON,ioos:station:SCCF:51:1,2008-09-10T19:00:00Z,26.5545,-82.1715,2.216,24.83,1111122 
SCCF RECON,ioos:station:SCCF:51:1,2008-09-10T20:00:00Z,26.5545,-82.1715,2.149,23.99,1111122 
SCCF RECON,ioos:station:SCCF:51:1,2008-09-10T21:00:00Z,26.5545,-82.1715,2.11,24.02,1111122 
SCCF RECON,ioos:station:SCCF:51:1,2008-09-10T22:00:00Z,26.5545,-82.1715,2.117,23.94,1111122 
SCCF RECON,ioos:station:SCCF:51:1,2008-09-10T23:00:00Z,26.5545,-82.1715,2.146,24.16,1111122 
SCCF RECON,ioos:station:SCCF:51:1,2008-09-11T00:00:00Z,26.5545,-82.1715,2.194,24.07,1111122 
SCCF RECON,ioos:station:SCCF:51:1,2008-09-11T01:00:00Z,26.5545,-82.1715,2.234,23.59,1111122 
SCCF RECON,ioos:station:SCCF:51:1,2008-09-11T02:00:00Z,26.5545,-82.1715,2.272,24.67,1111122 
SCCF RECON,ioos:station:SCCF:51:1,2008-09-11T03:00:00Z,26.5545,-82.1715,2.315,23.38,1111122 
SCCF RECON,ioos:station:SCCF:51:1,2008-09-11T04:00:00Z,26.5545,-82.1715,2.372,24.45,1111122 
SCCF RECON,ioos:station:SCCF:51:1,2008-09-11T05:00:00Z,26.5545,-82.1715,2.383,25.68,1111122 
SCCF RECON,ioos:station:SCCF:51:1,2008-09-11T06:00:00Z,26.5545,-82.1715,2.345,27.3,1111122 
SCCF RECON,ioos:station:SCCF:51:1,2008-09-11T07:00:00Z,26.5545,-82.1715,2.28,26.42,1111122 
SCCF RECON,ioos:station:SCCF:51:1,2008-09-11T08:00:00Z,26.5545,-82.1715,2.244,26.48,1111122 
SCCF RECON,ioos:station:SCCF:51:1,2008-09-11T09:00:00Z,26.5545,-82.1715,2.259,27.24,1111122 
SCCF RECON,ioos:station:SCCF:51:1,2008-09-11T10:00:00Z,26.5545,-82.1715,2.297,26.94,1111122 
SCCF RECON,ioos:station:SCCF:51:1,2008-09-11T11:00:00Z,26.5545,-82.1715,2.361,26.74,1111122 
SCCF RECON,ioos:station:SCCF:51:1,2008-09-11T12:00:00Z,26.5545,-82.1715,2.415,26.75,1111122 
SCCF RECON,ioos:station:SCCF:51:1,2008-09-11T13:00:00Z,26.5545,-82.1715,2.428,27.93,1111122 
SCCF RECON,ioos:station:SCCF:51:1,2008-09-11T14:00:00Z,26.5545,-82.1715,2.438,28.35,1111122 
SCCF RECON,ioos:station:SCCF:51:1,2008-09-11T15:00:00Z,26.5545,-82.1715,2.419,28.43,1111122 
SCCF RECON,ioos:station:SCCF:51:1,2008-09-11T16:00:00Z,26.5545,-82.1715,2.36,28.45,1111122 